Durango, CO

3:04 PM MDT on July 27, 2017 (GMT -0600)
Durango-La Plata County

Weather History for KDRO - December, 2014

Change the Weather History Date:

Saturday, December 13, 2014

  Actual Average Record
Temperature  
Mean Temperature 39 °F 27 °F  
Max Temperature 48 °F 39 °F 56 °F (1988)
Min Temperature 30 °F 14 °F 1 °F (1985)
Degree Days  
Heating Degree Days 26 38  
Month to date heating degree days 367 477  
Since 1 July heating degree days 1778 2150  
Cooling Degree Days 0 0  
Month to date cooling degree days 0 0  
Year to date cooling degree days 305 243  
Moisture  
Dew Point 32 °F    
Average Humidity 83    
Maximum Humidity 100    
Minimum Humidity 65    
Precipitation  
Precipitation 0.38 in 0.03 in 0.71 in (1975)
Month to date precipitation 0.56 0.43  
Year to date precipitation 11.91 15.33  
Sea Level Pressure  
Sea Level Pressure 29.96 in    
Wind  
Wind Speed 7 mph (SW)    
Max Wind Speed 24 mph    
Max Gust Speed 30 mph    
Visibility 6 miles    
Events Fog , Rain , Snow    
T = Trace of Precipitation, MM = Missing Value Source: NWS Daily Summary

Daily Weather History Graph

Daily Weather History Graph

Search for Another Location

Airport or City:

Trip Planner

Search our weather history database for the weather conditions in past years. The results will help you decide how hot, cold, wet, or windy it might be!

Date:

Astronomy

Dec. 13, 2014 Rise Set
Actual Time 7:16 AM MST 4:54 PM MST
Civil Twilight 6:47 AM MST 5:23 PM MST
Nautical Twilight 6:14 AM MST 5:56 PM MST
Astronomical Twilight 5:42 AM MST 6:27 PM MST
Moon 11:51 PM MST (12/13) 11:48 AM MST (12/13)
Length of Visible Light 10h 36m
Length of Day
9h 38m
Waning Gibbous, 57% of the Moon is Illuminated
Dec 13
Waning Gibbous
Dec 14
Last Quarter
Dec 21
New
Dec 28
First Quarter
Jan 4
Full

Hourly Weather History & Observations

Time (MST) Temp. Windchill Dew Point Humidity Pressure Visibility Wind Dir Wind Speed Gust Speed Precip Events Conditions
12:53 AM 34.0 °F - 28.9 °F 82% 30.09 in 10.0 mi Calm Calm - N/A   Clear
1:53 AM 33.1 °F 30.0 °F 28.0 °F 82% 30.09 in 10.0 mi East 3.5 mph - N/A   Clear
2:53 AM 32.0 °F 24.2 °F 28.0 °F 85% 30.08 in 10.0 mi NE 9.2 mph - N/A   Clear
3:53 AM 32.0 °F 25.6 °F 28.0 °F 85% 30.07 in 10.0 mi ENE 6.9 mph - N/A   Clear
4:53 AM 34.0 °F 28.0 °F 28.9 °F 82% 30.07 in 10.0 mi NE 6.9 mph - N/A   Overcast
5:53 AM 33.1 °F 30.0 °F 30.0 °F 89% 30.07 in 10.0 mi ENE 3.5 mph - 0.00 in   Partly Cloudy
6:53 AM 34.0 °F 29.8 °F 30.0 °F 85% 30.07 in 10.0 mi ESE 4.6 mph - N/A   Overcast
7:53 AM 35.1 °F - 30.0 °F 82% 30.08 in 10.0 mi Calm Calm - N/A   Scattered Clouds
8:53 AM 37.0 °F - 30.9 °F 79% 30.06 in 10.0 mi Calm Calm - N/A   Clear
9:53 AM 37.9 °F 30.5 °F 33.1 °F 83% 30.05 in 10.0 mi SSW 11.5 mph - N/A   Overcast
9:58 AM 36.0 °F 29.6 °F 32.0 °F 86% 30.07 in 1.8 mi SW 8.1 mph - 0.05 in Rain Heavy Rain
10:06 AM 36.0 °F 29.6 °F 33.1 °F 89% 30.07 in 3.0 mi WSW 8.1 mph - 0.05 in Rain Light Rain
10:13 AM 36.0 °F 28.5 °F 33.1 °F 89% 30.07 in 7.0 mi WSW 10.4 mph - 0.06 in Rain Light Rain
10:29 AM 36.0 °F 32.1 °F 35.1 °F 97% 30.05 in 2.5 mi ENE 4.6 mph - 0.11 in Rain Light Rain
10:38 AM 37.0 °F 30.4 °F 35.1 °F 93% 30.04 in 8.0 mi ENE 9.2 mph - 0.11 in Rain Light Rain
10:45 AM 37.0 °F 30.4 °F 35.1 °F 93% 30.03 in 10.0 mi ENE 9.2 mph - 0.11 in Rain Light Rain
10:53 AM 37.0 °F 29.8 °F 35.1 °F 93% 30.05 in 10.0 mi NE 10.4 mph - 0.11 in   Overcast
11:43 AM 41.0 °F 34.7 °F 37.0 °F 86% 30.00 in 10.0 mi ENE 10.4 mph - N/A   Partly Cloudy
11:53 AM 42.1 °F 36.6 °F 37.0 °F 82% 29.99 in 10.0 mi ENE 9.2 mph - N/A   Partly Cloudy
12:53 PM 46.0 °F 42.5 °F 36.0 °F 68% 29.91 in 10.0 mi ENE 6.9 mph - N/A   Mostly Cloudy
1:53 PM 45.0 °F 42.6 °F 36.0 °F 71% 29.88 in 10.0 mi SSW 4.6 mph - 0.00 in Rain Light Rain
2:28 PM 45.0 °F - 39.0 °F 80% 29.88 in 10.0 mi Calm Calm - 0.02 in   Mostly Cloudy
2:39 PM 43.0 °F 41.3 °F 37.9 °F 82% 29.88 in 10.0 mi NNW 3.5 mph - 0.02 in   Mostly Cloudy
2:53 PM 43.0 °F 40.3 °F 39.0 °F 86% 29.86 in 10.0 mi NNW 4.6 mph - 0.02 in   Mostly Cloudy
3:26 PM 41.0 °F 33.9 °F 39.0 °F 93% 29.89 in 4.0 mi SW 12.7 mph 21.9 mph 0.03 in Rain Rain
3:34 PM 35.1 °F 24.1 °F 34.0 °F 96% 29.90 in 2.5 mi WSW 19.6 mph 27.6 mph 0.06 in Rain Heavy Rain
3:38 PM 34.0 °F 22.7 °F 33.1 °F 96% 29.90 in 1.8 mi WSW 19.6 mph 29.9 mph 0.07 in Snow Light Snow
3:44 PM 33.1 °F 21.9 °F 33.1 °F 100% 29.91 in 1.0 mi West 18.4 mph 29.9 mph 0.08 in Snow Light Snow
3:53 PM 32.0 °F 21.6 °F 32.0 °F 100% 29.95 in 0.5 mi West 15.0 mph 23.0 mph 0.09 in Fog , Snow Snow
4:02 PM 33.1 °F 24.4 °F 33.1 °F 100% 29.90 in 1.5 mi West 11.5 mph - 0.03 in Snow Light Snow
4:06 PM 33.1 °F 24.9 °F 33.1 °F 100% 29.90 in 3.0 mi West 10.4 mph - 0.03 in Snow Light Snow
4:14 PM 33.1 °F 26.1 °F 33.1 °F 100% 29.90 in 7.0 mi WSW 8.1 mph - 0.03 in Snow Light Snow
4:28 PM 33.1 °F 24.9 °F 33.1 °F 100% 29.90 in 5.0 mi WSW 10.4 mph - 0.03 in Snow Light Snow
4:51 PM 33.8 °F 25.8 °F 33.8 °F 100% 29.90 in 7.0 mi WSW 10.4 mph - 0.04 in Snow Light Snow
4:53 PM 33.1 °F 24.9 °F 33.1 °F 100% 29.93 in 7.0 mi WSW 10.4 mph - 0.04 in Snow Light Snow
5:13 PM 32.0 °F 22.5 °F 32.0 °F 100% 29.92 in 1.5 mi WSW 12.7 mph - 0.01 in Snow Light Snow
5:15 PM 32.0 °F 23.6 °F 32.0 °F 100% 29.93 in 1.0 mi WSW 10.4 mph - 0.01 in Snow Light Snow
5:20 PM 32.0 °F 25.6 °F 32.0 °F 100% 29.92 in 0.5 mi WSW 6.9 mph - 0.03 in Fog , Snow Snow
5:45 PM 32.0 °F 24.8 °F 32.0 °F 100% 29.92 in 1.5 mi WSW 8.1 mph - 0.06 in Snow Light Snow
5:53 PM 32.0 °F 23.6 °F 32.0 °F 100% 29.96 in 1.5 mi WSW 10.4 mph - 0.06 in Snow Light Snow
5:59 PM 32.0 °F 22.5 °F 32.0 °F 100% 29.93 in 1.0 mi WSW 12.7 mph - 0.00 in Snow Light Snow
6:06 PM 30.9 °F 21.2 °F 30.9 °F 100% 29.93 in 0.5 mi WSW 12.7 mph - 0.01 in Fog , Snow Snow
6:44 PM 30.9 °F 24.3 °F 30.0 °F 96% 29.91 in 1.0 mi East 6.9 mph - 0.06 in Snow Light Snow
6:50 PM 30.2 °F 24.3 °F 30.2 °F 100% 29.91 in 1.5 mi ESE 5.8 mph - 0.06 in Snow Light Snow
6:53 PM 30.9 °F 25.2 °F 30.9 °F 100% 29.95 in 2.5 mi ESE 5.8 mph - 0.06 in Snow Light Snow
6:59 PM 30.9 °F 27.5 °F 30.9 °F 100% 29.92 in 6.0 mi SE 3.5 mph - 0.00 in Snow Light Snow
7:50 PM 30.2 °F 25.4 °F 30.2 °F 100% 29.88 in 10.0 mi South 4.6 mph - 0.00 in   Overcast
7:53 PM 30.9 °F 26.2 °F 30.9 °F 100% 29.92 in 10.0 mi South 4.6 mph - 0.00 in   Overcast
8:26 PM 30.9 °F 24.3 °F 30.9 °F 100% 29.89 in 10.0 mi SW 6.9 mph - N/A   Overcast
8:53 PM 30.9 °F 24.3 °F 30.9 °F 100% 29.92 in 10.0 mi WSW 6.9 mph - N/A   Overcast
9:40 PM 30.9 °F 26.2 °F 30.9 °F 100% 29.90 in 4.0 mi SW 4.6 mph - 0.00 in Snow Light Snow
9:49 PM 30.2 °F 24.3 °F 30.2 °F 100% 29.90 in 9.0 mi SW 5.8 mph - 0.00 in   Overcast
9:53 PM 30.9 °F 26.2 °F 30.0 °F 96% 29.92 in 10.0 mi SW 4.6 mph - 0.00 in   Overcast
10:33 PM 30.9 °F 24.3 °F 30.0 °F 96% 29.90 in 4.0 mi SW 6.9 mph - 0.00 in Snow Light Snow
10:43 PM 30.9 °F 24.3 °F 30.0 °F 96% 29.90 in 9.0 mi SW 6.9 mph - 0.00 in   Overcast
10:53 PM 30.9 °F 23.5 °F 30.0 °F 96% 29.92 in 9.0 mi WSW 8.1 mph - 0.00 in   Overcast
11:31 PM 30.0 °F 21.7 °F 30.0 °F 100% 29.87 in 10.0 mi WSW 9.2 mph - N/A   Overcast
11:53 PM 30.0 °F 21.1 °F 28.9 °F 96% 29.88 in 10.0 mi SW 10.4 mph - N/A   Overcast